Manchester, NH

1:13 AM EDT on August 23, 2017 (GMT -0400)
Manchester

Weather History for KMHT - December, 2012

Change the Weather History Date:

Sunday, December 30, 2012

  Actual Average Record
Temperature  
Mean Temperature 24 °F 26 °F  
Max Temperature 28 °F 34 °F 52 °F (1948)
Min Temperature 19 °F 18 °F -9 °F (1962)
Degree Days  
Heating Degree Days 42 39  
Month to date heating degree days 1036  
Since 1 July heating degree days 2330  
Cooling Degree Days 0 0  
Month to date cooling degree days 0  
Year to date cooling degree days 642  
Moisture  
Dew Point 13 °F    
Average Humidity 63    
Maximum Humidity 93    
Minimum Humidity 45    
Precipitation  
Precipitation 0.01 in 0.09 in 0.90 in (1956)
Month to date precipitation 3.19  
Year to date precipitation 44.49  
Snow  
Snow 0.00 in - - ()
Month to date snowfall  
Since 1 July snowfall  
Snow Depth 12.00 in    
Sea Level Pressure  
Sea Level Pressure 29.72 in    
Wind  
Wind Speed 13 mph (NW)    
Max Wind Speed 20 mph    
Max Gust Speed 30 mph    
Visibility 9 miles    
Events Snow    
T = Trace of Precipitation, MM = Missing Value Source: NWS Daily Summary

Daily Weather History Graph

Daily Weather History Graph

Search for Another Location

Airport or City:

Trip Planner

Search our weather history database for the weather conditions in past years. The results will help you decide how hot, cold, wet, or windy it might be!

Date:

Astronomy

Dec. 30, 2012 Rise Set
Actual Time 7:16 AM EST 4:20 PM EST
Civil Twilight 6:44 AM EST 4:52 PM EST
Nautical Twilight 6:08 AM EST 5:28 PM EST
Astronomical Twilight 5:34 AM EST 6:02 PM EST
Moon 6:52 PM EST (12/30) 8:20 AM EST (12/30)
Length of Visible Light 10h 08m
Length of Day
9h 03m
Waning Gibbous, 95% of the Moon is Illuminated
Dec 30
Waning Gibbous
Jan 4
Last Quarter
Jan 11
New
Jan 18
First Quarter
Jan 26
Full

Hourly Weather History & Observations

Time (EST) Temp. Windchill Dew Point Humidity Pressure Visibility Wind Dir Wind Speed Gust Speed Precip Events Conditions
12:18 AM 26.6 °F 16.2 °F 24.8 °F 93% 29.45 in 2.0 mi NNW 11.5 mph - 0.00 in Snow Light Snow
12:53 AM 27.0 °F 18.0 °F 24.1 °F 89% 29.50 in 1.8 mi NNW 9.2 mph - 0.00 in Snow Light Snow
1:53 AM 28.0 °F 19.3 °F 24.1 °F 85% 29.51 in 5.0 mi NNW 9.2 mph - 0.00 in Snow Light Snow
2:53 AM 27.0 °F 18.7 °F 23.0 °F 85% 29.51 in 10.0 mi NW 8.1 mph - 0.00 in   Mostly Cloudy
3:53 AM 27.0 °F 18.7 °F 21.9 °F 81% 29.51 in 10.0 mi WNW 8.1 mph - N/A   Clear
4:53 AM 27.0 °F 16.1 °F 21.0 °F 78% 29.52 in 10.0 mi WNW 12.7 mph 25.3 mph N/A   Clear
5:53 AM 27.0 °F 13.5 °F 19.9 °F 75% 29.56 in 10.0 mi NW 19.6 mph 26.5 mph 0.01 in   Overcast
6:53 AM 26.1 °F 12.3 °F 18.0 °F 71% 29.60 in 6.0 mi NW 19.6 mph 26.5 mph N/A   Overcast
7:53 AM 23.0 °F 9.6 °F 14.0 °F 68% 29.65 in 10.0 mi NW 16.1 mph 29.9 mph N/A   Overcast
8:53 AM 23.0 °F 8.3 °F 12.9 °F 65% 29.69 in 5.0 mi NW 19.6 mph 28.8 mph N/A   Overcast
9:53 AM 24.1 °F 10.1 °F 12.9 °F 62% 29.71 in 10.0 mi NW 18.4 mph 29.9 mph N/A   Mostly Cloudy
10:53 AM 25.0 °F 12.2 °F 14.0 °F 63% 29.71 in 10.0 mi NW 16.1 mph 27.6 mph N/A   Mostly Cloudy
11:53 AM 26.1 °F 14.0 °F 14.0 °F 60% 29.70 in 10.0 mi NW 15.0 mph 23.0 mph N/A   Mostly Cloudy
12:53 PM 26.1 °F 15.6 °F 12.9 °F 58% 29.70 in 10.0 mi WNW 11.5 mph 23.0 mph N/A   Clear
1:53 PM 27.0 °F 15.6 °F 12.0 °F 53% 29.73 in 10.0 mi WNW 13.8 mph 23.0 mph N/A   Clear
2:53 PM 28.0 °F 15.7 °F 10.0 °F 47% 29.76 in 10.0 mi NW 17.3 mph 25.3 mph N/A   Clear
3:53 PM 27.0 °F 13.9 °F 8.1 °F 45% 29.80 in 9.0 mi NW 18.4 mph 28.8 mph N/A   Clear
4:53 PM 25.0 °F 14.8 °F 9.0 °F 51% 29.83 in 10.0 mi NW 10.4 mph 16.1 mph N/A   Clear
5:53 PM 24.1 °F 11.0 °F 8.1 °F 51% 29.88 in 10.0 mi WNW 16.1 mph 21.9 mph N/A   Clear
6:53 PM 23.0 °F 10.1 °F 6.1 °F 48% 29.91 in 9.0 mi NW 15.0 mph 26.5 mph N/A   Clear
7:53 PM 21.9 °F 13.4 °F 5.0 °F 48% 29.95 in 10.0 mi NW 6.9 mph 18.4 mph N/A   Clear
8:53 PM 21.0 °F 8.1 °F 6.1 °F 53% 29.96 in 10.0 mi WNW 13.8 mph 23.0 mph N/A   Clear
9:53 PM 19.9 °F 9.3 °F 5.0 °F 52% 29.99 in 10.0 mi WNW 9.2 mph 17.3 mph N/A   Clear
10:53 PM 21.0 °F 9.3 °F 3.9 °F 48% 29.99 in 10.0 mi NW 11.5 mph 26.5 mph N/A   Clear
11:53 PM 21.0 °F 8.6 °F 5.0 °F 50% 29.99 in 10.0 mi NW 12.7 mph 29.9 mph N/A   Clear